Location: Apeadero de Los Molinos-Guadarrama
(40.7091°N, 4.0689°W)
Time: 10:30:30
(UTC+00:00)

Tiangong - Pass Details

Date: 06 October 2021
Orbit: 382 x 385 km, 41.5° (Epoch: 17 October)

Event Time Altitude Azimuth Distance (km) Brightness Sun altitude
Exits shadow 03:42:27 10° 95° (E) 1,391 4.6 -29.8°
Drops below altitude 10° 03:42:28 10° 95° (E) 1,396 4.6 -29.8°
Sets 03:44:32 0° 96° (E) 2,248 5.9 -29.4°
